Wind_Speed
37 37 37 37 36 35 34 31 30 27 26 26 28 28 28 28 28 28 27 26 27 28 30 31 32 34 36 39 42 45 49 53 56 60 64 67 69 71 72 73 74 75 78 81
35 35 36 36 37 38 37 35 32 30 28 28 30 29 28 28 27 27 27 27 28 29 30 32 34 37 39 42 45 49 53 57 61 65 67 69 71 71 71 73 75 77 80 83
34 36 36 37 36 37 37 35 33 31 26 28 28 28 27 27 27 28 28 29 29 30 32 34 36 39 42 45 49 53 58 62 65 68 69 70 70 70 71 73 76 79 83 86
31 34 36 32 32 33 33 31 30 28 25 26 27 27 27 28 28 29 30 30 31 32 34 36 39 42 45 49 54 58 62 66 68 69 69 69 69 71 73 75 78 82 86 89
24 26 27 27 26 27 27 26 26 25 25 26 26 27 27 28 29 30 30 31 33 35 36 39 41 45 49 54 58 63 66 69 69 69 68 68 70 72 75 78 81 85 89 92
22 22 20 21 23 23 25 23 23 24 24 25 26 27 28 30 31 32 33 34 35 36 38 41 45 49 54 58 63 66 69 69 68 68 68 69 71 74 77 81 85 89 92 93
21 21 20 21 22 22 21 20 21 23 24 26 28 30 31 32 33 34 35 35 36 38 41 45 49 54 59 62 66 69 69 68 67 68 69 71 73 77 81 85 89 92 93 93
23 23 21 22 24 24 24 24 25 26 28 29 31 32 33 33 33 34 35 36 38 41 45 50 54 59 62 66 68 68 67 66 67 69 71 73 76 80 84 89 92 92 91 88
21 19 19 20 22 23 25 26 28 29 29 30 30 31 31 32 32 33 35 38 42 46 50 54 58 62 65 67 66 65 64 65 67 69 72 76 80 84 88 92 93 91 87 83
16 16 16 17 19 20 22 24 25 27 28 28 29 29 30 31 32 35 39 42 46 51 55 58 62 64 65 64 63 62 63 65 68 71 75 79 84 88 91 92 91 86 82 77
13 13 14 16 18 20 21 23 25 26 27 28 29 30 32 34 37 40 43 47 51 54 58 60 61 61 60 59 59 61 63 67 71 75 80 84 88 90 91 89 86 81 77 72
14 15 16 17 20 22 23 25 26 28 30 31 32 34 36 38 41 44 47 50 54 56 57 58 57 56 56 56 59 62 66 71 75 80 84 88 91 90 88 84 78 73 71 70
18 20 21 22 23 25 26 28 29 31 32 33 35 36 38 41 44 47 50 52 53 54 53 53 52 52 54 58 62 66 71 75 80 85 89 91 91 88 83 76 71 68 68 69
24 25 26 27 28 29 29 30 31 32 33 34 35 37 40 43 46 48 49 49 49 49 49 49 50 53 57 61 66 71 76 81 86 89 91 90 87 82 76 70 67 66 68 70
30 30 31 31 31 32 32 31 31 32 33 35 38 41 43 45 46 46 46 46 46 46 48 49 53 57 61 67 72 76 81 86 89 91 89 85 79 73 69 67 67 68 70 72
33 33 33 33 33 33 32 32 33 34 36 39 41 43 43 43 43 43 43 44 45 47 49 53 57 62 67 72 77 81 86 89 90 88 83 76 71 69 68 69 70 72 74 73
32 32 32 32 32 32 33 34 36 37 39 40 41 41 41 41 41 42 43 45 47 50 53 58 62 67 73 78 82 86 89 90 87 80 74 70 68 68 70 72 74 74 72 66
31 31 31 32 33 34 35 36 37 38 40 40 40 40 40 40 42 43 45 48 51 54 58 63 68 73 78 82 86 89 89 86 79 72 69 67 68 70 73 75 74 70 61 51
31 32 32 32 33 34 35 37 38 39 39 39 39 39 40 41 43 46 48 51 55 59 63 68 72 77 81 85 87 88 85 77 71 67 67 68 70 73 74 72 66 57 48 40
32 32 33 34 35 36 37 37 38 37 37 37 37 39 40 43 45 48 52 55 59 63 68 72 76 80 83 86 86 82 76 69 66 66 68 70 73 72 68 61 53 45 38 32
33 34 35 36 36 36 36 36 35 35 35 36 38 40 42 45 48 52 56 60 63 67 71 75 79 82 84 84 80 73 67 65 65 68 70 72 70 64 57 50 42 36 31 27
35 35 35 35 35 34 33 33 34 34 36 37 39 42 45 49 53 57 60 64 67 71 74 78 81 83 82 78 71 66 64 65 67 70 71 68 61 54 48 41 35 31 27 22
33 33 32 32 32 32 32 33 34 36 38 40 43 47 50 54 58 61 64 67 70 73 76 79 81 80 76 70 65 63 64 66 69 70 65 59 54 48 41 35 31 27 22 15
31 31 32 32 32 32 34 35 37 40 43 45 49 52 56 59 62 65 68 70 72 75 78 79 78 74 68 64 63 64 66 68 68 64 58 53 48 42 36 31 27 22 15 7
32 33 33 34 35 36 37 39 42 45 47 51 54 57 61 63 65 67 69 71 74 77 77 76 72 67 63 62 63 65 68 67 62 57 52 46 41 36 32 28 22 14 6 3
35 36 37 38 39 40 42 45 47 50 53 56 59 61 63 65 66 68 70 73 75 76 74 70 65 62 62 63 65 67 65 60 55 50 46 41 37 33 28 22 14 5 4 12
38 39 40 42 44 46 48 50 53 55 58 60 62 63 64 65 67 69 72 74 74 72 68 64 61 61 63 65 66 63 58 53 48 45 41 38 34 28 21 14 5 6 14 21
Wind_Direction
212 214 217 220 224 228 231 232 234 237 241 242 245 246 248 251 255 258 261 265 270 275 279 282 284 286 289 293 296 299 301 303 305 306 307 308 308 308 307 307 307 308 309 311
213 217 220 222 223 226 229 232 235 236 238 241 245 247 249 251 253 257 261 267 272 276 279 282 285 288 292 295 298 301 303 305 306 307 308 308 308 307 307 307 308 310 312 314
214 217 220 223 225 228 231 234 237 236 236 241 244 248 250 253 256 259 264 269 274 278 281 284 287 290 294 297 301 303 305 306 307 308 308 307 307 307 307 308 310 312 314 315
216 219 223 224 227 231 231 232 235 237 239 245 248 251 254 256 259 262 266 271 275 279 282 285 289 293 297 301 303 305 306 307 308 308 307 307 306 306 308 310 313 314 315 316
215 222 223 224 226 229 231 231 236 240 243 247 251 254 257 259 262 265 269 272 276 279 283 287 292 296 300 303 304 305 306 307 308 308 307 306 306 308 310 312 314 315 316 317
219 224 224 220 224 227 231 234 239 243 247 251 254 258 260 262 265 268 271 274 278 281 285 290 295 299 301 303 304 305 306 308 308 308 307 307 308 310 312 314 315 316 317 318
223 226 222 219 223 228 234 235 239 246 250 254 259 261 263 266 267 269 273 277 280 285 290 294 297 299 301 303 304 306 307 308 308 308 308 309 310 312 314 315 316 317 317 317
226 228 224 225 228 233 237 240 243 248 254 258 261 264 266 268 270 272 276 280 285 289 293 295 297 299 301 303 306 308 309 309 309 309 310 312 313 314 315 316 316 317 317 316
227 230 229 234 238 240 244 248 251 253 256 260 262 264 267 269 272 275 280 284 288 291 293 295 298 300 303 306 308 310 310 310 310 311 312 313 314 315 315 316 316 316 316 316
223 228 235 240 245 248 252 254 257 260 262 263 265 266 268 271 276 280 283 286 289 292 294 297 300 303 306 309 310 310 311 311 312 313 313 314 315 315 315 315 315 315 315 316
230 237 244 249 253 255 258 260 262 263 263 265 267 270 273 277 280 283 285 288 291 294 297 300 304 307 309 311 311 312 312 313 314 314 314 315 315 315 316 316 316 316 317 318
240 247 255 258 261 262 263 265 266 266 267 270 272 275 277 279 282 285 288 291 295 298 302 305 308 310 311 312 313 313 314 315 315 315 315 315 315 315 316 316 317 317 318 319
249 255 261 264 265 266 267 268 268 268 270 272 275 277 279 282 285 289 293 296 300 303 306 308 310 311 312 314 315 316 316 316 317 317 317 316 316 316 317 317 317 318 318 318
257 260 263 265 267 268 270 271 271 272 273 275 277 280 283 286 290 294 298 301 304 307 309 310 311 312 314 316 317 318 318 318 319 318 317 316 316 317 317 318 318 318 318 319
261 264 265 267 268 270 271 272 273 274 276 278 281 284 287 291 295 299 302 305 307 308 310 311 312 314 316 318 319 319 319 319 319 318 317 317 317 318 318 318 319 319 319 319
263 265 267 268 269 270 271 273 274 276 278 281 284 288 292 296 299 302 304 306 307 309 311 312 314 316 319 320 320 320 320 319 319 318 317 318 318 318 319 319 319 320 320 320
262 264 265 266 268 269 271 273 275 277 280 284 288 292 295 298 300 302 304 306 309 311 313 314 317 319 320 320 320 320 319 319 318 317 318 318 318 319 319 320 320 320 321 321
261 262 264 266 268 270 272 274 277 281 285 289 292 295 297 300 302 304 306 309 311 312 314 317 318 319 319 319 319 319 319 318 317 317 318 319 319 319 320 320 320 321 322 322
261 263 265 266 268 270 273 276 280 284 288 291 294 297 300 303 305 307 309 311 313 314 316 317 318 318 318 318 318 318 318 317 317 318 319 319 319 319 320 320 321 322 323 324
261 262 264 266 269 272 276 280 284 288 291 295 298 301 303 305 307 309 311 312 314 315 316 316 316 316 317 318 318 317 317 317 318 318 318 319 319 320 321 322 323 324 325 326
262 264 266 269 272 276 280 284 288 293 296 299 301 303 304 306 308 310 312 313 313 314 314 314 315 316 317 317 317 316 316 316 317 318 319 320 321 321 322 323 324 325 326 327
266 267 269 272 275 279 283 287 291 294 297 299 301 304 306 308 309 310 311 311 312 312 313 314 315 316 317 316 315 315 315 316 317 319 320 321 322 323 323 324 325 326 326 328
266 267 268 271 275 279 283 286 290 293 296 300 303 305 307 308 309 309 309 310 310 311 312 314 316 316 316 315 314 314 315 316 318 319 320 321 322 323 323 324 324 325 326 327
262 264 267 271 275 279 282 286 290 294 298 301 303 305 306 307 307 307 307 308 309 312 314 315 316 316 315 314 314 315 316 317 318 319 320 321 321 322 322 322 323 323 323 322
260 263 267 271 275 279 283 288 292 295 298 300 302 303 304 305 305 306 307 308 311 313 315 316 315 315 314 314 315 316 317 318 319 320 320 320 320 320 320 320 320 318 311 176
261 264 268 272 276 281 285 289 293 296 298 300 302 303 304 304 305 306 307 310 313 314 315 315 314 313 313 314 315 317 318 318 319 320 320 320 319 319 318 317 314 296 180 156
265 268 272 276 280 284 288 292 295 297 299 301 302 302 303 304 305 307 310 312 314 314 314 313 313 313 314 315 316 317 318 319 319 320 319 319 318 316 314 309 281 176 157 152
Height
5661 5667 5673 5678 5683 5687 5692 5697 5701 5705 5707 5708 5708 5709 5711 5711 5712 5713 5713 5713 5712 5711 5709 5707 5705 5702 5699 5695 5690 5686 5680 5675 5668 5661 5653 5645 5637 5627 5618 5608 5598 5587 5576 5565
5658 5663 5667 5672 5677 5681 5685 5690 5694 5698 5701 5701 5702 5703 5704 5705 5706 5706 5706 5706 5705 5703 5702 5699 5696 5693 5689 5685 5680 5675 5669 5663 5656 5648 5640 5631 5622 5612 5602 5592 5581 5570 5558 5546
5655 5658 5662 5668 5673 5676 5680 5684 5688 5691 5696 5694 5696 5697 5698 5699 5699 5699 5699 5698 5697 5695 5693 5690 5687 5684 5679 5675 5670 5664 5658 5651 5643 5634 5625 5616 5606 5597 5587 5576 5565 5553 5541 5528
5650 5655 5658 5666 5668 5671 5674 5678 5682 5685 5688 5689 5690 5691 5692 5693 5693 5692 5691 5690 5689 5686 5684 5681 5678 5674 5670 5665 5659 5652 5645 5637 5629 5620 5610 5601 5591 5582 5571 5560 5548 5536 5524 5511
5646 5650 5655 5661 5664 5666 5670 5674 5677 5679 5681 5682 5683 5684 5685 5685 5685 5684 5683 5682 5680 5678 5676 5673 5669 5664 5659 5654 5647 5640 5632 5623 5614 5605 5595 5586 5577 5567 5556 5545 5532 5519 5506 5493
5644 5647 5652 5658 5659 5661 5665 5669 5671 5673 5674 5675 5676 5677 5678 5677 5676 5676 5675 5673 5672 5670 5667 5664 5659 5654 5649 5642 5634 5626 5617 5608 5599 5589 5580 5571 5562 5552 5540 5528 5515 5502 5488 5473
5640 5643 5648 5652 5654 5657 5662 5665 5665 5666 5667 5668 5669 5670 5670 5669 5668 5667 5666 5665 5663 5661 5658 5654 5649 5643 5636 5629 5620 5611 5602 5592 5583 5574 5565 5556 5546 5535 5523 5511 5498 5485 5470 5454
5636 5639 5646 5647 5649 5652 5655 5657 5658 5659 5660 5661 5661 5661 5661 5660 5660 5659 5658 5657 5654 5651 5647 5643 5637 5630 5623 5615 5606 5596 5587 5578 5569 5560 5550 5540 5530 5518 5505 5492 5479 5465 5451 5437
5634 5639 5640 5642 5644 5646 5648 5650 5651 5652 5653 5653 5653 5653 5653 5653 5652 5651 5650 5647 5644 5641 5636 5631 5624 5617 5609 5600 5590 5581 5572 5563 5554 5545 5535 5524 5512 5500 5487 5473 5458 5445 5431 5419
5629 5632 5635 5637 5638 5640 5642 5643 5644 5645 5646 5646 5646 5646 5645 5645 5644 5642 5640 5637 5634 5629 5624 5617 5610 5602 5593 5584 5575 5567 5559 5550 5541 5531 5521 5509 5496 5482 5468 5452 5438 5425 5412 5400
5625 5628 5629 5631 5633 5635 5636 5637 5638 5638 5638 5638 5638 5638 5638 5636 5635 5632 5630 5626 5622 5616 5610 5603 5595 5587 5579 5571 5563 5554 5546 5537 5527 5516 5505 5492 5479 5463 5448 5433 5417 5404 5392 5381
5622 5624 5626 5628 5628 5629 5630 5630 5631 5631 5631 5630 5630 5630 5628 5627 5624 5622 5618 5614 5608 5602 5595 5588 5581 5573 5566 5558 5550 5542 5533 5523 5512 5500 5487 5474 5460 5447 5431 5416 5403 5388 5375 5364
5617 5619 5620 5621 5622 5622 5623 5623 5623 5623 5622 5622 5621 5620 5618 5616 5613 5609 5605 5600 5594 5587 5581 5574 5568 5561 5554 5546 5538 5528 5518 5507 5495 5481 5468 5454 5440 5427 5416 5403 5389 5376 5365 5352
5611 5612 5613 5614 5614 5614 5614 5614 5614 5613 5613 5612 5611 5609 5607 5604 5600 5596 5591 5585 5580 5574 5568 5562 5556 5549 5542 5533 5523 5512 5501 5489 5476 5462 5448 5434 5420 5408 5396 5386 5377 5366 5353 5340
5603 5604 5605 5605 5605 5605 5605 5605 5605 5604 5603 5602 5600 5598 5595 5591 5587 5582 5578 5573 5568 5563 5557 5551 5544 5536 5528 5518 5507 5495 5483 5471 5458 5444 5429 5416 5403 5391 5381 5371 5361 5351 5340 5328
5594 5595 5595 5596 5596 5596 5596 5595 5595 5594 5593 5591 5588 5586 5583 5579 5575 5571 5566 5562 5557 5552 5545 5538 5530 5522 5512 5502 5490 5478 5466 5452 5438 5424 5411 5399 5387 5377 5367 5357 5346 5335 5323 5311
5585 5585 5585 5586 5586 5586 5586 5586 5585 5583 5582 5579 5577 5574 5571 5568 5564 5560 5556 5551 5546 5539 5532 5524 5515 5506 5496 5485 5474 5462 5449 5435 5421 5407 5395 5384 5374 5363 5353 5342 5331 5319 5307 5295
5575 5576 5576 5577 5577 5577 5576 5575 5574 5572 5570 5568 5566 5563 5560 5557 5554 5549 5544 5539 5533 5526 5518 5509 5500 5490 5480 5469 5457 5444 5431 5417 5404 5392 5382 5371 5360 5349 5338 5327 5315 5304 5294 5284
5565 5566 5567 5567 5567 5567 5566 5565 5563 5562 5560 5558 5555 5553 5550 5546 5542 5537 5532 5526 5519 5511 5503 5494 5484 5474 5463 5451 5439 5426 5412 5400 5389 5378 5368 5358 5347 5336 5324 5313 5302 5291 5283 5276
5556 5556 5557 5557 5557 5557 5556 5555 5553 5552 5550 5548 5545 5542 5538 5534 5529 5524 5518 5512 5504 5496 5487 5477 5468 5457 5446 5433 5420 5407 5395 5385 5375 5366 5356 5345 5334 5322 5311 5300 5291 5282 5276 5270
5547 5547 5547 5547 5547 5547 5546 5545 5543 5542 5539 5537 5534 5530 5526 5522 5516 5510 5503 5497 5489 5480 5471 5461 5451 5440 5428 5415 5403 5391 5381 5371 5362 5352 5342 5331 5320 5309 5299 5290 5282 5276 5270 5265
5537 5538 5538 5538 5538 5537 5536 5535 5533 5531 5529 5526 5522 5518 5514 5508 5502 5496 5489 5481 5473 5464 5455 5444 5434 5422 5409 5397 5386 5376 5367 5358 5349 5339 5328 5317 5307 5298 5289 5282 5276 5270 5266 5262
5528 5528 5528 5528 5528 5527 5526 5525 5523 5521 5518 5514 5510 5505 5500 5494 5488 5481 5474 5466 5457 5448 5438 5427 5416 5404 5392 5381 5372 5363 5354 5345 5335 5325 5314 5305 5296 5288 5281 5275 5270 5265 5261 5259
5519 5519 5519 5518 5518 5517 5516 5514 5511 5508 5505 5501 5496 5491 5485 5480 5473 5466 5458 5450 5441 5431 5420 5409 5397 5386 5376 5367 5358 5350 5340 5331 5321 5311 5302 5293 5285 5278 5273 5268 5264 5261 5258 5256
5509 5509 5509 5508 5507 5506 5504 5502 5499 5496 5492 5487 5482 5476 5470 5464 5457 5449 5441 5433 5424 5414 5402 5391 5380 5370 5361 5353 5345 5336 5326 5316 5307 5298 5290 5283 5276 5270 5265 5262 5259 5256 5255 5255
5499 5499 5498 5497 5496 5494 5492 5489 5486 5482 5477 5472 5467 5461 5454 5447 5440 5432 5424 5416 5406 5395 5385 5375 5365 5356 5348 5339 5331 5321 5312 5302 5294 5286 5279 5272 5267 5262 5258 5255 5254 5253 5253 5255
5488 5487 5486 5485 5483 5481 5479 5476 5472 5467 5462 5457 5451 5445 5438 5431 5424 5416 5408 5398 5388 5378 5368 5359 5351 5343 5334 5325 5317 5307 5297 5289 5282 5275 5269 5263 5258 5254 5251 5250 5250 5251 5253 5256